Weather History for Evansville, IN

Change the Weather History Date:

Thursday, February 21, 2013

  Actual Average Record
Temperature  
Mean Temperature 28 °F 38 °F  
Max Temperature 34 °F 48 °F 72 °F (1922)
Min Temperature 21 °F 29 °F -3 °F (1963)
Degree Days  
Heating Degree Days 37 27  
Month to date heating degree days 610 618  
Since 1 July heating degree days 3175 3397  
Cooling Degree Days 0 0  
Month to date cooling degree days 0 0  
Year to date cooling degree days 0 0  
Moisture  
Dew Point 22 °F    
Average Humidity 72    
Maximum Humidity 89    
Minimum Humidity 54    
Precipitation  
Precipitation 0.47 in 0.10 in 1.36 in (1950)
Month to date precipitation 1.89 2.39  
Year to date precipitation 8.66 5.49  
Snow  
Snow T in 0.10 in 0.60 in (1965)
Month to date snowfall 1.3 3.0  
Since 1 July snowfall 12.3 9.9  
Snow Depth 0.00 in    
Sea Level Pressure  
Sea Level Pressure 30.13 in    
Wind  
Wind Speed 10 mph (ENE)    
Max Wind Speed 20 mph    
Max Gust Speed 28 mph    
Visibility 8 miles    
Events Rain , Snow    
T = Trace of Precipitation, MM = Missing Value Source: NWS Daily Summary

Daily Weather History Graph

Daily Weather History Graph

Search for Another Location

Airport:

Trip Planner

Search our weather history database for the weather conditions in past years. The results will help you decide how hot, cold, wet, or windy it might be!

Date:

Astronomy

Feb. 21, 2013 Rise Set
Actual Time 6:32 AM CST 5:35 PM CST
Civil Twilight 6:05 AM CST 6:02 PM CST
Nautical Twilight 5:35 AM CST 6:32 PM CST
Astronomical Twilight 5:04 AM CST 7:03 PM CST
Moon 1:52 PM CST (2/21) 3:34 AM CST (2/21)
Length of Visible Light 11h 56m
Length of Day
11h 03m
Waxing Gibbous, 84% of the Moon is Illuminated
Feb 21
Waxing Gibbous
Feb 25
Full
Mar 4
Last Quarter
Mar 11
New
Mar 19
First Quarter

Hourly Weather History & Observations

Time (CST) Temp. Windchill Dew Point Humidity Pressure Visibility Wind Dir Wind Speed Gust Speed Precip Events Conditions
12:54 AM 21.0 °F 14.6 °F 15.1 °F 78% 30.33 in 10.0 mi NNE 4.6 mph - N/A   Clear
1:54 AM 21.9 °F 17.2 °F 14.0 °F 72% 30.33 in 10.0 mi NE 3.5 mph - N/A   Clear
2:54 AM 21.9 °F 14.5 °F 15.1 °F 75% 30.32 in 10.0 mi NE 5.8 mph - N/A   Clear
3:54 AM 21.0 °F 12.4 °F 14.0 °F 74% 30.31 in 10.0 mi NE 6.9 mph - N/A   Clear
4:54 AM 21.2 °F 14.9 °F 14.0 °F 74% 30.31 in 10.0 mi ENE 4.6 mph - N/A   Clear
5:54 AM 21.9 °F 14.5 °F 15.1 °F 75% 30.33 in 10.0 mi ENE 5.8 mph - N/A   Clear
6:54 AM 23.0 °F 13.1 °F 15.1 °F 72% 30.30 in 10.0 mi ENE 9.2 mph - N/A   Clear
7:54 AM 24.1 °F 13.1 °F 15.1 °F 69% 30.29 in 10.0 mi ENE 11.5 mph 18.4 mph N/A   Clear
8:54 AM 27.0 °F 17.3 °F 16.0 °F 63% 30.29 in 10.0 mi ENE 10.4 mph - N/A   Clear
9:54 AM 28.9 °F 21.1 °F 16.0 °F 58% 30.29 in 10.0 mi ENE 8.1 mph - N/A   Partly Cloudy
10:54 AM 30.9 °F 21.2 °F 17.1 °F 57% 30.22 in 10.0 mi ENE 12.7 mph 16.1 mph N/A   Mostly Cloudy
11:54 AM 32.0 °F 24.2 °F 17.1 °F 54% 30.20 in 10.0 mi East 9.2 mph - N/A   Overcast
12:54 PM 33.1 °F 23.9 °F 19.0 °F 56% 30.09 in 10.0 mi East 12.7 mph 18.4 mph 0.01 in Rain Light Rain
1:54 PM 33.1 °F 26.9 °F 21.0 °F 61% 30.07 in 10.0 mi East 6.9 mph - 0.00 in   Overcast
2:54 PM 33.1 °F 27.7 °F 23.0 °F 66% 30.15 in 8.0 mi NE 5.8 mph - 0.02 in Rain Light Rain
3:54 PM 32.0 °F 24.8 °F 26.1 °F 79% 30.15 in 3.0 mi NNE 8.1 mph - 0.03 in Snow Light Snow
4:05 PM 32.0 °F 25.6 °F 26.6 °F 80% 30.14 in 2.0 mi NNE 6.9 mph - 0.01 in Snow Light Snow
4:50 PM 32.0 °F 21.2 °F 26.6 °F 80% 30.09 in 8.0 mi ENE 16.1 mph - 0.03 in   Overcast
4:54 PM 32.0 °F 22.5 °F 26.1 °F 79% 30.11 in 3.0 mi ENE 12.7 mph - 0.03 in Rain Light Freezing Rain
5:35 PM 32.0 °F 23.0 °F 26.6 °F 80% 30.05 in 3.0 mi East 11.5 mph 21.9 mph 0.05 in Rain Rain
5:54 PM 32.0 °F 21.2 °F 27.0 °F 82% 30.01 in 4.0 mi ENE 16.1 mph 23.0 mph 0.08 in Rain Rain
6:54 PM 33.1 °F 23.0 °F 27.0 °F 78% 29.95 in 10.0 mi East 15.0 mph 27.6 mph 0.03 in Rain Light Rain
7:54 PM 34.0 °F 26.0 °F 28.0 °F 79% 29.96 in 9.0 mi ESE 10.4 mph 24.2 mph 0.01 in Rain Light Rain
8:54 PM 33.1 °F 26.1 °F 28.9 °F 85% 29.98 in 5.0 mi ESE 8.1 mph 17.3 mph 0.09 in Rain Rain
9:24 PM 33.8 °F 25.8 °F 30.2 °F 87% 29.95 in 3.0 mi East 10.4 mph - 0.12 in Rain Heavy Rain
9:54 PM 33.1 °F 24.4 °F 30.0 °F 89% 29.94 in 8.0 mi East 11.5 mph - 0.16 in Rain Light Rain
9:59 PM 33.8 °F 25.8 °F 30.2 °F 87% 29.92 in 8.0 mi East 10.4 mph - 0.00 in Rain Light Rain
10:54 PM 34.0 °F 25.0 °F 30.0 °F 85% 29.90 in 9.0 mi East 12.7 mph - 0.01 in Rain Light Rain
11:54 PM 34.0 °F 26.0 °F 30.9 °F 89% 29.87 in 8.0 mi ESE 10.4 mph 17.3 mph 0.00 in   Overcast